Location: Dürabuch
(48.2640°N, 11.2185°E)
Time: 01:50:42
(UTC+00:00)

Genesis I - Pass Details

Date: 23 May 2024
Orbit: 432 x 466 km, 64.5° (Epoch: 19 June)

Event Time Altitude Azimuth Distance (km) Brightness Sun altitude
Exits shadow 02:06:41 17° 225° (SW) 1,218 4.4 -10.8°
Maximum altitude 02:09:18 76° 310° (NW) 470 2.9 -10.5°
Drops below altitude 10° 02:12:52 10° 36° (NE) 1,602 7.3 -10.1°
Sets 02:15:01 0° 38° (NE) 2,487 9.0 -9.9°
